EW9507 Weather Reports


Display with metric or nautical units.
time (UTC)temp
F
wind
direction
speed
MPH
gust
MPH
rain 1hr
in
rain 24hr
in
rain mn
in
humidity
%
barometer
mb
20260508134516 51 283 10.0 16.0 0.00 0.03 0.00 65 1011.4
20260508133007 50 264 9.0 13.0 0.00 0.03 0.00 69 1011.4
20260508131603 49 288 8.0 12.0 0.00 0.03 0.00 72 1011.3
20260508130109 47 271 8.0 12.0 0.00 0.03 0.00 75 1011.1
20260508124519 46 283 8.0 12.0 0.00 0.03 0.00 77 1011.0
20260508123016 44 274 7.0 10.0 0.00 0.03 0.00 81 1010.8
20260508121512 43 252 5.0 9.0 0.00 0.03 0.00 82 1010.7
20260508120010 43 264 5.0 9.0 0.00 0.03 0.00 81 1010.5
20260508114509 43 264 8.0 11.0 0.00 0.03 0.00 82 1010.5
20260508113009 43 264 6.0 9.0 0.00 0.03 0.00 84 1010.5
20260508111513 43 264 7.0 11.0 0.00 0.03 0.00 84 1010.5
20260508110007 43 264 8.0 13.0 0.00 0.03 0.00 84 1010.5
20260508104510 43 269 8.0 11.0 0.00 0.03 0.00 85 1010.5
20260508104507 43 281 8.0 11.0 0.00 0.03 0.00 85 1010.5
20260508103005 43 293 7.0 12.0 0.00 0.03 0.00 84 1010.4
20260508101505 43 264 10.0 13.0 0.00 0.03 0.00 85 1010.2
20260508100003 42 293 8.0 12.0 0.00 0.03 0.00 85 1010.3
20260508094558 42 300 9.0 12.0 0.00 0.03 0.00 84 1010.1
20260508093054 43 272 8.0 14.0 0.00 0.03 0.00 83 1010.1
20260508091545 44 281 10.0 14.0 0.00 0.03 0.00 82 1010.1
20260508090016 44 295 10.0 14.0 0.00 0.03 0.00 83 1010.2
20260508084512 44 284 9.0 13.0 0.00 0.03 0.00 84 1010.2
20260508083005 45 274 11.0 15.0 0.00 0.03 0.00 83 1010.1
20260508081504 45 283 7.0 10.0 0.00 0.03 0.00 82 1010.2
20260508080001 45 269 8.0 12.0 0.00 0.03 0.00 82 1010.3
20260508074558 45 283 7.0 13.0 0.00 0.03 0.00 82 1010.4
20260508073055 45 272 6.0 10.0 0.00 0.03 0.00 82 1010.3
20260508071600 45 296 8.0 12.0 0.00 0.03 0.00 80 1010.5
20260508070137 45 269 8.0 11.0 0.00 0.03 0.00 80 1010.5
20260508064605 45 288 7.0 11.0 0.00 0.03 0.00 81 1010.5
20260508063043 45 281 7.0 11.0 0.00 0.03 0.00 80 1010.4
20260508061539 46 277 7.0 11.0 0.00 0.03 0.00 79 1010.2
20260508060034 46 266 8.0 12.0 0.00 0.03 0.00 80 1010.0
20260508054530 46 307 4.0 9.0 0.00 0.03 0.00 79 1010.1
20260508053024 48 298 6.0 10.0 0.00 0.03 0.03 75 1009.9
20260508051526 49 283 8.0 13.0 0.00 0.03 0.03 74 1009.9
20260508050023 48 265 7.0 11.0 0.00 0.03 0.03 75 1010.0
20260508044523 49 260 5.0 9.0 0.00 0.03 0.03 73 1010.0
20260508043039 48 277 7.0 10.0 0.00 0.03 0.03 74 1010.1
20260508041519 48 285 6.0 10.0 0.00 0.03 0.03 75 1010.3
20260508040023 47 286 4.0 8.0 0.00 0.03 0.03 77 1010.2
20260508034520 46 281 3.0 5.0 0.00 0.03 0.03 77 1010.3
20260508033016 47 295 4.0 6.0 0.00 0.03 0.03 77 1010.1
20260508031521 47 284 4.0 6.0 0.00 0.03 0.03 77 1010.0
20260508030018 46 285 3.0 6.0 0.00 0.03 0.03 77 1009.6
20260508024514 46 302 3.0 5.0 0.00 0.03 0.03 75 1009.3
20260508023016 47 293 4.0 6.0 0.00 0.03 0.03 72 1009.1
20260508021510 49 298 4.0 6.0 0.00 0.03 0.03 68 1008.8
20260508020008 51 321 4.0 7.0 0.00 0.03 0.03 67 1008.6
20260508014512 52 331 3.0 6.0 0.00 0.03 0.03 66 1008.5
20260508013037 52 347 3.0 5.0 0.00 0.03 0.03 66 1008.4
20260508011539 52 335 2.0 6.0 0.00 0.03 0.03 65 1008.4
20260508010008 53 354 4.0 9.0 0.00 0.03 0.03 64 1008.2
20260508004507 53 343 8.0 12.0 0.00 0.03 0.03 63 1008.3
20260508003104 54 318 6.0 11.0 0.00 0.03 0.03 62 1008.4
20260508001503 53 336 9.0 13.0 0.00 0.03 0.03 64 1008.3
20260508000001 52 349 8.0 17.0 0.00 0.03 0.03 64 1008.2
20260507234501 52 14 7.0 15.0 0.00 0.03 0.03 64 1008.3
20260507233058 52 349 12.0 19.0 0.00 0.03 0.03 65 1008.1
20260507231557 51 352 12.0 19.0 0.01 0.03 0.03 65 1008.3
20260507224557 55 354 17.0 24.0 0.01 0.03 0.03 63 1007.7
20260507223058 56 345 13.0 20.0 0.01 0.03 0.03 64 1007.5
20260507223056 56 329 13.0 20.0 0.01 0.03 0.03 64 1007.5
20260507221553 55 347 11.0 21.0 0.00 0.02 0.02 67 1007.6
20260507220053 54 309 14.0 23.0 0.00 0.02 0.02 73 1007.9
20260507220051 54 302 15.0 23.0 0.00 0.02 0.02 73 1007.9
20260507214550 52 310 13.0 19.0 0.00 0.02 0.02 81 1008.2
20260507213052 51 312 13.0 21.0 0.00 0.02 0.02 83 1008.4
20260507211542 49 310 12.0 22.0 0.00 0.02 0.02 84 1008.7
20260507210042 50 302 12.0 17.0 0.00 0.02 0.02 78 1008.8
20260507204540 52 319 12.0 21.0 0.00 0.02 0.02 71 1008.7
20260507203041 53 321 17.0 25.0 0.01 0.02 0.02 67 1008.9
20260507201541 52 315 10.0 19.0 0.02 0.02 0.02 70 1008.8
20260507200043 52 322 12.0 21.0 0.02 0.02 0.02 73 1008.8
20260507194545 51 8 11.0 18.0 0.02 0.02 0.02 79 1009.0
20260507193037 48 337 5.0 13.0 0.01 0.01 0.01 84 1009.2
20260507191534 48 321 10.0 16.0 0.00 0.00 0.00 84 1009.3
20260507190032 48 328 10.0 20.0 0.00 0.00 0.00 83 1009.3
20260507184529 49 335 11.0 25.0 0.00 0.00 0.00 79 1009.3
20260507183037 49 352 11.0 23.0 0.00 0.00 0.00 80 1009.4
20260507181524 51 330 14.0 24.0 0.00 0.00 0.00 71 1009.4
20260507180021 55 339 16.0 24.0 0.00 0.00 0.00 53 1008.9
20260507174524 56 4 16.0 26.0 0.00 0.00 0.00 50 1008.8
20260507173019 56 6 15.0 23.0 0.00 0.00 0.00 49 1008.7
20260507171551 56 13 14.0 22.0 0.00 0.00 0.00 46 1008.5
20260507170050 57 6 11.0 17.0 0.00 0.00 0.00 42 1008.7
20260507164603 58 315 6.0 11.0 0.00 0.00 0.00 41 1008.8
20260507163043 58 298 7.0 10.0 0.00 0.00 0.00 41 1008.8
20260507161546 57 354 7.0 17.0 0.00 0.00 0.00 41 1008.7
20260507160045 57 321 6.0 10.0 0.00 0.00 0.00 42 1008.9
20260507154537 57 6 5.0 13.0 0.00 0.00 0.00 40 1009.1
20260507153036 58 306 9.0 26.0 0.00 0.00 0.00 38 1009.3
20260507151535 58 279 11.0 18.0 0.00 0.00 0.00 38 1009.3
20260507150031 56 260 15.0 20.0 0.00 0.00 0.00 45 1009.3
20260507144603 54 274 13.0 19.0 0.00 0.00 0.00 45 1009.6
20260507143108 53 250 13.0 18.0 0.00 0.00 0.00 42 1009.7
20260507141608 53 288 9.0 13.0 0.00 0.00 0.00 42 1009.7
20260507140050 53 284 9.0 16.0 0.00 0.00 0.00 42 1009.8